STARLINK-34029, 63805

Orbit data source: Space-Track

STARLINK-34029, 63805 is a payload satellite owned by SpaceX/Seattle (US) in LEO that was launched on Sun, 04 May 2025 UTC via an FALCON 9 launch vehicle from the Air Force Eastern Test Range (AFETR). Payload-class satellites include a variety of spacecraft equipped with specific instruments for various scientific and technological missions. These include communications satellites like Starlink; space stations such as the ISS; scientific satellites like the Hubble; Earth observation satellites from companies like Planet Labs, Umbra, and HawkEye 360; GPS; miniature CubeSats for education and research; and military/defense satellites.

Loading next visibility...
Identifier
63805, 2025-092B
Orbit
LEO
Last TLE update
12 hours ago
Origin
Manufacturer
SpaceX/Seattle
Mission
Operational Commercial Communications
Bus & Motor
STARLINK V2MO, Unknown motor
Mass
575 kg wet, ~530 kg dry
Launch date (UTC)
2025-05-04 (2 months ago)
Launch vehicle
FALCON 9
Launch site
Air Force Eastern Test Range (AFETR)
Object type
Payload
Rocket body
Debris
Shape & HBR
Box + 1 Pan, 29 m
Radar Cross Section
41.120 m², Large (>1 m²)

Expand to show TLE details & history

TLE from 12 hours ago
0 STARLINK-34029
1 63805U 25092B   25189.16467843  .00014098  00000-0  52114-3 0  9992
2 63805  42.9963 113.8409 0000361 256.7424 103.3387 15.27561744 11215
Epoch: 2025-07-08T03:57Z
TLE epoch observation values (Epoch: 2025-07-08T03:57:08.216Z)
Latitude
-0.00003°
Longitude
128.19304°
Altitude
482.936 km
Speed
7.626 km/s
True Right ascension
07h 35m 21s
True Declination
0° 00' 00"
Sunlit
Object was in daylight at epoch
Visualization orbit readout
Latitude
33.04029°
Longitude
-98.44828°
Altitude
484.324 km
Speed
7.628 km/s
Apparent Right ascension
16h 04m 41s
Apparent Declination
-1° 53' 18"
Sunlit
Object is in full shadow
Visualization observer readout
Local Sidereal Time
03:36:21
Azimuth
348.593° N
Elevation
-51.431°
Doppler factor
1
Orbital elements
Apogee altitude
485.297 km
Perigee altitude
484.802 km
Semi-major axis
6,863.187 km
Eccentricity
0.00004
Inclination
42.9963°
RAAN
113.8409°
Arg. of periapsis
256.7424°
True anomaly
Unknown
Mean anomaly
103.3387°
Eccentric anomaly
Unknown
Mean motion
3.81728 °/min
Orbital period
94.31 mins
BSTAR
0.00052114
Loading maneuver chart data...
Loading SW <> Apogee altitude chart data...
Loading historical data...
Loading historical data...
Loading historical data...
Loading historical data...
Loading historical data...
Loading historical data...
Loading historical data...

STARLINK-34029 Visibility forecast

Observer location: undefined°, undefined°

Span
Click to sort rows by Start time (UTC) header in descending order
Start Az.
Max El. time (UTC)
Max El. Az.
Max El.
End time (UTC)
End Az.
4 mins2025-07-08 21:23:28.547Z183.809° SSW2025-07-08 21:25:28.547Z151.336° SSE15.991°2025-07-08 21:27:28.547Z113.404° SE
5 mins2025-07-08 23:02:28.547Z238.38° WSW2025-07-08 23:04:28.547Z147.449° SSE43.743°2025-07-08 23:07:28.547Z74.758° E
5 mins2025-07-09 00:41:28.547Z287.467° WNW2025-07-09 00:43:28.547Z355.011° N38.579°2025-07-09 00:46:28.547Z71.047° E
5 mins2025-07-09 02:20:28.547Z293.58° NW2025-07-09 02:22:28.547Z346.008° N42.741°2025-07-09 02:25:28.547Z96.038° ESE
5 mins2025-07-09 03:59:28.547Z263.735° W2025-07-09 04:01:28.547Z211.167° SW29.654°2025-07-09 04:04:28.547Z146.826° SSE
|